Location: Proctor
(47.8934°N, 114.3048°W)
Time: 01:52:13
(UTC+00:00)

Courier 1B Rocket - All Passes

Search period start: 13 June 2024 00:00
Search period end: 23 June 2024 00:00
Orbit: 920 x 1201 km, 28.3° (Epoch: 12 June)

Date Brightness Start Highest point End Pass type
(mag) Time Alt. Az. Time Alt. Az. Time Alt. Az.
13 Jun - 14:33:31 10° SSW 14:37:45 16° S 14:42:00 10° SE daylight
13 Jun - 16:25:40 10° SW 16:30:03 16° S 16:34:25 10° SSE daylight
14 Jun - 13:33:23 10° SSW 13:36:51 14° SSE 13:40:22 10° SE daylight
14 Jun - 15:24:34 10° SW 15:29:08 17° S 15:33:42 10° SE daylight
14 Jun - 17:18:39 10° SW 17:21:22 12° SSW 17:24:06 10° S daylight
15 Jun - 12:34:11 10° S 12:36:01 11° SSE 12:37:52 10° SSE daylight
15 Jun - 14:23:47 10° SSW 14:28:12 16° S 14:32:41 10° SE daylight
15 Jun - 16:16:42 10° SW 16:20:29 14° SSW 16:24:18 10° SSE daylight
16 Jun - 13:23:20 10° SSW 13:27:18 15° S 13:31:22 10° SE daylight
16 Jun - 15:15:21 10° SW 15:19:35 16° S 15:23:53 10° SSE daylight
17 Jun - 12:23:21 10° S 12:26:27 13° SSE 12:29:37 10° SE daylight
17 Jun - 14:14:21 10° SW 14:18:40 16° S 14:23:05 10° SE daylight
17 Jun - 16:08:21 10° SW 16:10:55 12° SSW 16:13:30 10° S daylight
18 Jun - 11:24:45 10° SSE 11:25:40 10° SSE 11:26:34 10° SSE daylight
18 Jun - 13:13:40 10° SSW 13:17:47 16° S 13:22:00 10° SE daylight
18 Jun - 15:06:29 10° SW 15:10:02 14° SSW 15:13:39 10° SSE daylight
19 Jun - 12:13:21 10° SSW 12:16:55 14° S 12:20:36 10° SE daylight
19 Jun - 14:05:14 10° SW 14:09:10 15° S 14:13:10 10° SSE daylight
20 Jun - 11:13:34 10° S 11:16:08 12° SSE 11:18:45 10° SE daylight
20 Jun - 13:04:20 10° SW 13:08:16 15° S 13:12:20 10° SSE daylight
20 Jun - 14:58:25 10° SSW 15:00:30 11° SSW 15:02:35 10° S daylight
21 Jun - 12:03:45 10° SSW 12:07:26 15° S 12:11:14 10° SE daylight
21 Jun - 13:56:32 10° SW 13:59:39 13° S 14:02:49 10° SSE daylight
22 Jun - 11:03:33 10° SSW 11:06:38 13° S 11:09:48 10° SE daylight
22 Jun - 12:55:20 10° SW 12:58:47 14° S 13:02:21 10° SSE daylight
